Location: ???????
(55.4362°N, 38.1183°E)
Time: 00:25:11
(UTC+00:00)

SL-4 R/B - Pass Details

Date: 17 June 2021
Orbit: 428 x 662 km, 51.6° (Epoch: 05 August)

Event Time Altitude Azimuth Distance (km) Brightness Sun altitude
Exits shadow 20:46:45 15° 157° (SSE) 1,410 3.5 -10.7°
Maximum altitude 20:47:19 16° 146° (SE) 1,381 3.5 -10.7°
Drops below altitude 10° 20:49:37 10° 108° (ESE) 1,663 4.2 -10.7°
Sets 20:52:21 0° 86° (E) 2,500 5.3 -10.8°
